Theta_e
359 358 356 357 359 359 358 355 352 347 342 340 340 340 340 339 338 337 338 339 339 339 337 333 331 334 336 334 333 333 334 334 335 335 334 335 336 337 337 337 337 336
360 358 356 358 359 359 358 355 352 347 342 340 339 339 339 338 337 337 337 338 339 338 336 333 331 332 335 335 333 333 333 332 334 335 334 334 336 336 337 337 337 337
359 356 355 358 360 360 357 354 351 346 341 339 339 339 338 338 337 336 336 337 338 338 335 333 332 332 333 334 333 334 334 333 335 335 333 333 334 334 335 336 337 337
357 354 354 357 359 359 357 354 349 344 340 339 338 338 338 338 337 336 335 336 337 337 335 333 332 332 333 334 333 334 335 334 335 334 333 334 333 331 333 334 335 336
355 354 354 356 359 358 355 352 347 342 340 339 338 337 337 337 337 336 335 335 336 337 335 333 332 331 333 333 334 335 336 336 335 332 332 334 332 330 331 332 333 334
355 355 354 356 358 356 354 350 344 341 339 338 337 335 335 337 338 337 336 335 336 337 336 334 331 331 333 334 334 335 336 336 335 332 332 334 333 331 331 330 330 332
356 355 355 356 356 355 353 347 341 339 337 336 335 334 335 337 338 338 336 335 336 336 336 333 330 330 333 335 335 335 335 335 334 332 332 333 332 331 329 328 329 330
355 354 354 354 354 353 349 343 339 338 336 335 334 333 336 338 338 338 336 336 336 335 335 332 328 330 333 335 335 335 335 334 333 332 333 332 331 330 329 328 329 328
353 353 352 351 350 347 344 340 339 338 335 334 333 333 336 337 337 337 335 336 335 334 333 331 328 331 334 335 335 334 334 334 333 332 332 332 331 331 329 328 328 328
352 350 347 346 345 343 342 340 339 337 335 334 333 333 335 336 336 336 335 335 334 331 331 330 330 332 335 336 335 333 332 333 333 331 329 330 331 330 330 328 328 329
350 346 344 346 346 343 342 341 339 336 335 334 334 333 333 333 334 335 334 333 332 330 330 330 331 334 336 336 335 333 331 330 330 329 329 329 330 329 328 328 327 328
346 343 345 348 347 344 343 342 339 336 335 334 334 332 332 332 333 334 333 332 330 329 329 330 332 335 335 335 334 331 330 330 329 329 330 330 330 329 328 327 326 327
344 343 346 348 347 344 344 343 340 337 335 334 333 332 332 332 332 332 332 331 329 328 328 330 333 335 335 334 333 331 329 329 330 330 331 331 330 329 327 326 326 326
344 345 347 347 346 343 343 342 340 337 334 332 332 331 332 331 330 331 332 330 330 330 329 330 332 334 334 334 333 333 331 329 330 330 331 332 331 329 327 327 326 326
345 344 345 345 344 343 340 339 339 338 334 330 330 330 332 332 330 331 332 331 332 332 330 330 332 333 333 334 335 335 334 331 330 331 331 332 332 330 328 327 326 326
346 343 343 343 343 342 340 338 338 337 333 330 330 331 332 332 330 331 333 334 334 333 331 330 331 332 333 335 336 335 334 331 330 331 332 332 333 332 331 328 326 326
346 343 342 342 341 341 339 337 337 337 333 329 330 332 333 333 333 333 335 335 335 335 333 330 331 332 335 336 335 332 330 330 330 331 332 333 334 334 334 332 328 327
346 344 343 342 341 340 339 337 336 336 334 330 331 333 332 332 334 336 336 336 336 336 335 333 331 333 336 335 332 330 330 330 331 332 333 333 334 334 334 334 332 329
345 344 343 342 341 339 339 338 337 335 334 333 333 334 332 331 335 336 336 336 336 335 336 335 333 335 336 335 332 331 332 332 332 333 333 333 333 334 334 335 333 329
344 344 343 341 340 339 339 339 337 337 336 335 335 336 335 335 333 328 331 336 335 332 334 335 333 335 337 336 335 333 332 333 333 333 333 333 334 334 334 335 332 328
345 343 341 341 340 339 339 339 337 336 336 335 336 336 335 334 327 321 328 335 332 328 333 334 333 334 337 338 338 335 333 334 333 333 334 334 334 334 334 334 332 328
345 343 342 341 340 339 339 338 337 336 335 335 335 333 331 330 326 324 330 336 333 331 334 334 333 335 336 337 338 336 334 334 334 334 334 333 332 332 333 332 330 327
345 343 342 341 340 340 340 339 338 337 336 334 332 328 326 324 324 327 333 337 336 334 332 332 333 334 334 336 337 336 335 334 334 333 332 330 330 331 332 331 329 326
346 344 343 342 341 341 341 339 339 337 334 332 329 325 323 322 324 328 331 333 335 334 331 332 334 335 334 336 336 335 334 334 332 331 331 331 332 332 332 330 327 326
346 344 344 343 342 341 339 338 337 334 332 330 326 324 324 326 327 327 327 330 334 335 334 334 335 335 336 336 335 335 334 332 331 330 330 331 332 331 330 328 326 325
346 345 344 343 341 339 337 335 334 333 331 328 326 327 330 331 330 330 331 333 336 336 335 336 335 334 334 334 333 333 333 331 330 329 329 331 332 330 329 328 326 325
Wind_Speed
20 24 31 33 31 31 29 27 28 28 28 28 27 26 26 24 22 20 20 20 20 18 15 12 13 14 12 12 12 10 9 9 8 8 8 9 9 9 9 9 9 10
21 24 32 33 32 32 29 29 29 29 29 29 28 27 25 24 21 21 21 21 21 19 16 14 13 13 12 12 11 10 10 9 9 8 8 8 9 9 9 10 10 11
25 30 34 34 33 33 30 30 30 30 30 29 28 27 25 23 22 22 22 22 22 21 17 15 14 13 12 12 11 10 10 10 9 9 8 8 9 9 9 10 10 11
31 36 36 34 34 33 31 31 31 31 30 29 28 27 25 24 23 23 23 22 22 21 19 16 15 14 13 13 12 11 10 10 10 10 10 10 11 11 11 10 10 10
38 38 36 35 34 34 32 32 32 32 31 30 28 27 26 25 25 25 24 23 23 22 19 18 16 15 15 15 14 12 11 11 11 12 12 12 12 13 12 12 11 11
39 38 37 36 34 34 33 32 32 31 30 29 27 26 27 27 26 26 25 24 23 22 20 19 17 16 16 16 16 14 13 11 11 13 14 13 13 13 13 13 13 13
39 39 38 36 35 35 34 33 32 29 28 27 27 27 27 27 28 27 25 24 24 23 21 19 18 17 17 17 17 16 15 14 13 14 14 14 13 13 14 15 15 15
39 39 38 37 36 35 33 33 31 28 27 28 27 28 28 28 28 27 25 25 24 23 22 20 19 18 18 17 18 17 15 14 14 14 15 14 14 15 15 15 15 15
38 38 37 34 33 32 33 34 31 29 29 29 29 29 28 28 27 26 25 25 25 23 23 22 20 19 18 18 17 17 15 14 14 15 15 15 15 15 15 15 15 15
37 34 30 27 29 31 34 34 32 30 29 29 29 29 28 28 26 25 25 25 25 24 23 22 20 19 19 18 17 17 16 15 15 16 16 16 16 16 15 15 15 14
31 25 25 28 32 36 36 35 32 30 30 30 29 28 27 27 25 25 26 26 25 25 24 22 20 19 19 18 18 17 17 16 16 17 17 17 17 17 16 16 15 14
22 24 30 36 38 38 37 36 34 31 30 30 29 27 27 26 25 26 27 27 27 26 24 21 20 20 19 19 18 18 18 18 18 18 18 18 18 18 17 16 15 15
26 33 40 42 42 41 40 39 37 34 32 31 30 29 29 26 24 26 28 27 27 26 23 21 20 20 20 19 18 19 19 19 19 19 19 19 19 18 17 16 16 16
34 41 44 46 45 42 40 40 40 37 34 33 32 31 31 28 25 26 28 27 27 25 23 22 22 22 21 20 20 20 21 21 21 20 20 20 20 19 18 17 17 17
36 39 43 45 42 38 38 39 39 37 34 34 34 33 31 29 25 24 27 29 27 25 23 23 24 24 23 22 22 23 23 24 23 22 22 21 21 20 19 19 18 19
33 36 39 40 37 37 36 32 30 34 36 36 36 34 33 30 25 25 28 29 28 25 23 24 25 26 25 23 23 23 23 24 23 22 22 22 22 21 21 20 19 19
31 34 39 40 35 33 35 35 33 36 39 39 38 36 34 30 26 26 27 27 27 26 25 25 26 27 25 23 23 22 22 22 22 22 22 22 22 22 22 22 21 20
33 35 35 30 21 20 32 44 47 44 42 39 38 37 34 30 27 25 23 23 24 24 26 27 27 26 25 24 24 23 22 22 22 23 23 23 24 23 23 23 22 20
33 31 25 20 19 23 35 46 49 50 47 40 36 33 30 28 24 19 16 18 19 22 27 28 27 26 25 25 25 24 23 23 23 24 24 25 25 24 25 26 23 18
29 27 26 27 30 34 38 40 43 46 42 33 28 25 24 23 19 14 13 17 18 23 28 28 28 29 27 27 28 25 23 23 24 25 25 25 25 24 26 26 22 19
29 29 31 34 34 34 36 39 42 42 33 23 20 21 21 19 18 17 18 20 21 26 29 28 31 33 30 29 30 27 26 25 25 25 24 23 23 23 25 24 21 19
30 30 31 33 33 34 36 38 40 36 28 21 20 22 21 18 20 23 25 26 27 29 29 29 32 33 30 31 32 30 27 25 24 23 21 20 20 21 23 22 21 19
28 29 30 30 31 31 33 36 36 33 28 26 25 25 25 25 27 28 27 25 25 26 27 29 31 31 30 32 32 29 25 22 21 20 19 19 20 20 21 21 20 18
27 28 29 27 27 27 27 28 28 27 28 29 28 27 29 32 34 31 26 22 21 23 25 27 28 28 30 30 27 23 20 19 19 17 18 20 19 18 19 19 17 15
24 26 25 22 21 21 19 19 20 23 26 27 26 26 28 30 29 26 24 22 21 22 24 25 26 28 29 27 24 22 20 18 16 15 18 21 18 15 16 15 13 12
22 22 19 18 19 19 19 22 26 29 29 28 26 25 23 21 20 18 19 21 21 22 23 23 23 23 23 21 21 21 19 17 15 16 18 19 15 12 11 9 9 10
Wind_Direction
216 219 225 228 229 230 230 228 225 220 216 212 208 205 204 203 203 202 204 206 208 209 212 216 213 209 207 205 206 206 208 214 225 236 241 241 239 235 234 236 235 236
215 218 225 228 228 229 228 228 226 221 217 214 212 210 209 207 205 202 203 206 207 209 211 211 207 205 205 206 208 209 212 222 234 244 245 242 240 237 238 243 242 243
215 221 225 227 227 226 226 226 225 221 218 216 214 213 212 210 206 203 204 206 207 207 209 208 205 203 204 205 207 211 219 230 239 246 248 246 247 247 246 247 247 247
219 224 226 226 226 226 225 224 222 219 217 216 214 213 213 211 207 206 207 208 207 208 209 208 207 207 208 208 210 216 225 234 243 250 254 255 259 260 257 255 255 256
225 226 225 226 225 224 224 222 219 217 216 216 215 214 213 210 208 208 210 210 209 210 210 212 212 212 216 217 217 221 228 236 246 254 257 259 263 264 260 260 263 266
226 225 225 225 224 222 221 220 218 217 216 216 216 215 213 210 209 210 212 212 211 211 212 215 217 218 222 224 224 227 232 237 246 254 258 260 262 263 262 265 270 271
224 224 223 222 221 220 220 218 216 215 216 217 217 216 214 211 211 212 214 214 213 214 216 219 220 223 227 230 230 232 235 240 246 251 256 258 260 263 264 268 271 271
222 221 220 219 218 217 216 215 213 214 216 215 215 216 214 213 214 214 215 216 215 216 220 222 222 225 232 234 234 236 239 240 243 247 253 256 259 263 266 268 270 271
219 219 218 215 213 212 212 213 214 216 217 212 211 213 214 214 215 216 217 217 217 220 221 220 221 227 235 237 237 239 239 238 242 247 251 254 259 264 266 267 270 273
217 214 209 206 209 211 212 213 215 216 216 213 211 212 213 213 215 218 220 220 219 221 220 219 223 231 237 240 241 240 240 242 246 250 253 257 262 265 266 268 270 272
210 195 194 206 213 213 212 213 214 215 216 216 213 213 214 213 214 218 222 222 220 220 220 222 226 234 240 243 244 242 243 246 249 252 257 261 265 267 267 268 270 273
183 175 195 211 215 213 211 211 212 214 215 216 216 217 216 213 214 220 221 222 221 220 222 227 231 237 242 244 244 244 246 249 252 255 260 265 268 269 269 268 269 274
175 190 204 213 215 212 209 208 210 211 211 215 219 219 215 211 214 223 225 223 222 222 225 231 235 240 243 243 244 246 249 251 254 258 263 267 268 267 266 266 268 272
196 205 209 213 211 208 206 206 207 208 208 213 219 218 215 210 210 220 229 227 225 225 229 235 239 241 243 243 245 248 250 251 254 258 263 267 268 266 263 264 267 269
208 210 212 212 206 202 207 207 205 208 211 214 218 219 217 212 207 216 228 232 232 231 233 237 240 242 244 246 248 249 250 250 253 258 263 267 268 267 266 266 267 267
208 209 212 210 201 199 206 207 206 211 215 216 218 218 215 210 207 212 224 233 238 237 236 239 242 245 248 250 251 251 251 252 254 257 261 267 269 269 270 270 269 270
206 208 210 210 203 193 195 205 215 218 216 216 217 214 209 208 208 210 219 232 239 241 242 242 245 249 252 253 251 249 249 250 252 256 261 267 270 271 273 273 271 271
207 210 211 207 193 173 186 203 214 218 218 216 213 209 205 206 208 208 216 231 239 245 249 248 249 253 255 256 252 247 247 248 252 258 263 268 272 274 275 273 268 269
206 206 201 188 178 182 195 203 208 213 216 214 208 203 199 201 204 201 214 232 238 247 253 253 255 257 256 256 253 248 248 250 254 260 265 269 273 276 277 274 268 267
201 196 194 196 197 198 201 203 205 211 214 211 203 194 187 192 192 190 219 237 237 246 255 257 258 258 258 258 256 252 251 252 256 262 266 271 275 277 278 277 271 265
197 195 198 203 203 200 199 202 207 210 210 202 189 176 171 178 179 187 221 236 231 238 249 253 255 259 262 261 258 254 252 253 256 261 266 271 276 278 279 276 269 266
198 199 200 202 203 200 200 204 205 206 203 191 177 166 163 171 179 193 220 230 225 231 243 250 258 264 266 264 260 255 252 253 256 260 264 270 277 281 279 271 266 267
200 200 201 201 201 200 202 204 203 200 194 183 171 166 172 184 193 203 220 227 224 230 239 248 260 267 265 264 261 256 254 255 255 256 261 268 275 278 273 266 263 264
201 202 202 201 202 203 205 205 198 189 181 173 167 172 186 198 203 208 218 227 232 236 240 248 261 267 264 262 260 254 250 251 254 263 274 276 274 270 265 262 260 260
201 203 202 202 204 205 203 195 181 171 168 170 177 187 196 202 205 208 217 231 243 246 246 252 260 263 261 257 251 246 243 244 256 277 284 278 267 258 256 257 256 258
203 201 197 194 197 195 187 178 173 173 176 180 186 192 196 198 201 209 223 237 245 248 250 254 255 255 256 253 245 238 239 249 264 273 270 263 254 248 247 247 248 250